Simultaneous Nadir Overpasses (SNOs) Predictions

Prediction of SNOs between LANDSAT-8 and METOP-B Satellite Orbit:

Table of predicted SNOs for the next 14.0 days since TLE Epoch: 12/8/2018
Index Date (LANDSAT-8) Time (LANDSAT-8) Lat,Lon (LANDSAT-8) SZA (LANDSAT-8 ) Date (METOP-B) Time (METOP-B) Lat,Lon (METOP-B) SZA (METOP-B ) Distance(km) Time Diff (sec)
1 12/08/2018 08:51:40 81.10, 86.51 105.90 12/08/2018 08:51:23 81.10, 86.50 105.90 0.43 17
2 12/08/2018 09:41:06 -81.12,-105.52 74.05 12/08/2018 09:42:02 -81.12,-105.57 74.03 0.90 56
3 12/11/2018 04:25:54 81.11, 153.18 106.17 12/11/2018 04:25:47 81.11, 153.31 106.18 2.27 7
4 12/11/2018 05:15:20 -81.13, -38.83 73.78 12/11/2018 05:16:26 -81.13, -38.74 73.75 1.65 66
5 12/13/2018 23:10:43 -81.07, 51.45 73.75 12/13/2018 23:09:33 -81.07, 51.30 73.79 2.59 70
6 12/14/2018 00:00:08 81.10,-140.54 106.31 12/14/2018 00:00:12 81.10,-140.66 106.30 2.15 4
7 12/16/2018 18:44:57 -81.09, 118.10 73.61 12/16/2018 18:43:57 -81.09, 118.10 73.63 0.10 60
8 12/16/2018 19:34:22 81.11, -73.90 106.45 12/16/2018 19:34:36 81.11, -73.90 106.46 0.14 14
9 12/19/2018 14:19:11 -81.10,-175.26 73.53 12/19/2018 14:18:21 -81.10,-175.12 73.54 2.42 50




NCC Satellite Simultaneous Nadir Overpasses (SNOs) Prediction Service
